Flag for U.S.A. Weather past 2 weeks in Ontario, Oregon, U.S.A.

Now
81 °F

Sunny.


Feels Like: 80 °F
Forecast: 56 / 81 °F
Wind: 9 mph from North

Location: Ontario Municipal Airport

Current Time: May 24, 2015 at 3:53:28 PM

Latest Report: May 24, 2015 at 2:53 PM


Visibility: 10 mi

Pressure: 29.83 "Hg

Humidity: 27%

Dew point: 44 °F

Location of OntarioLocation

Historic Weather in Ontario — Graph

°F

Ontario temperature yesterday

Maximum temperature yesterday: 85 °F (at 4:53 PM)
Minimum temperature yesterday: 55 °F (at 4:53 AM)
Average temperature yesterday: 69 °F

Past Weeks' High & Low Weather Summary

 TemperatureHumidityPressure
High85 °F (May 23, 4:53 PM)93% (May 18, 1:53 AM)30.09 "Hg (May 18, 1:53 AM)
Low42 °F (May 10, 5:53 AM)12% (May 9, 3:53 PM)29.56 "Hg (May 14, 7:53 PM)
Average62 °F59%29.85 "Hg
* Reported May 9 2:53 PM — May 24 2:53 PM, Ontario, Weather by CustomWeather, © 2015

Note: Actual official high and low records may vary slightly from our data, if they occured in-between our weather recording intervals... More about our weather records

Advertising

Ontario weather history for previous 24 hours

 ConditionsComfort  
Time TempWeatherWind HumidityBarometerVisibility
2:53 PM
Sun, May 24
81 °FSunny.9 mph27%29.83 "Hg10 mi
1:53 PM79 °FPassing clouds.7 mph30%29.85 "Hg10 mi
12:53 PM76 °FSunny.No wind35%29.88 "Hg10 mi
11:53 AM73 °FSunny.No wind37%29.89 "Hg10 mi
10:53 AM71 °FSunny.3 mph44%29.90 "Hg10 mi
9:53 AM68 °FSunny.5 mph51%29.92 "Hg10 mi
8:53 AM66 °FSunny.3 mph54%29.93 "Hg10 mi
7:53 AM62 °FClear.No wind58%29.93 "Hg10 mi
6:53 AM54 °FClear.3 mph77%29.93 "Hg10 mi
5:53 AM53 °FClear.7 mph77%29.93 "Hg10 mi
4:53 AM55 °FClear.5 mph72%29.92 "Hg10 mi
3:53 AM57 °FClear.5 mph64%29.92 "Hg10 mi
2:53 AM58 °FClear.No wind62%29.91 "Hg10 mi
1:53 AM64 °FPassing clouds.8 mph54%29.90 "Hg10 mi
12:53 AM64 °FPassing clouds.17 mph56%29.87 "Hg10 mi
11:53 PM
Sat, May 23
65 °FClear.13 mph54%29.87 "Hg10 mi
10:53 PM67 °FSunny.14 mph55%29.86 "Hg10 mi
9:53 PM69 °FSunny.14 mph51%29.83 "Hg10 mi
8:53 PM73 °FSunny.22 mph44%29.81 "Hg10 mi
7:53 PM77 °FSunny.22 mph39%29.79 "Hg10 mi
6:53 PM81 °FSunny.24 mph33%29.77 "Hg10 mi
5:53 PM81 °FSunny.18 mph28%29.78 "Hg10 mi
4:53 PM85 °FSunny.18 mph24%29.78 "Hg10 mi
3:53 PM82 °FSunny.13 mph29%29.80 "Hg10 mi
Weather by CustomWeather, © 2015

See weather overviewHow to use our weather pages